Location: Chimay
(50.0486°N, 4.3171°E)
Time: 07:29:47
(UTC+00:00)

Meteor 1-23 Rocket - Pass Details

Date: 08 August 2020
Orbit: 836 x 889 km, 81.3° (Epoch: 26 September)

Event Time Altitude Azimuth Distance (km) Brightness Sun altitude
Rises 22:45:52 0° 348° (NNW) 3,510 8.9 -22.7°
Reaches altitude 10° 22:48:20 10° 349° (NNW) 2,568 7.8 -22.8°
Maximum altitude 22:54:13 85° 77° (ENE) 900 4.2 -23.1°
Enters shadow 22:55:44 52° 161° (SSE) 1,091 4.3 -23.2°
